Regional Weather Roundup
Issued by NWS

Home | Current Version | Previous Version | Text Only | Print | Product List | Glossary On
Versions: 1 2 3 4 5 6 7 8 9 10 11 12 13 14 15 16 17 18 19 20 21 22 23 24 25 26 27 28 29 30 31 32 33 34 35 36 37 38 39 40 41 42 43 44 45 46 47 48 49 50
000
ASUS43 KLMK 262010
RWRKY
KENTUCKY REGIONAL WEATHER ROUNDUP
NATIONAL WEATHER SERVICE LOUISVILLE KY
400 PM EDT MON SEP 26 2016

NOTE "FAIR" INDICATES FEW OR NO CLOUDS BELOW 12,000 FEET
WITH NO SIGNIFICANT WEATHER AND/OR OBSTRUCTIONS TO VISIBILITY.

KYZ001>023-026-027-061>063-070>075-262100-
WESTERN AND SOUTH CENTRAL KENTUCKY

CITY           SKY/WX    TMP DP  RH WIND       PRES   REMARKS
PADUCAH        PTSUNNY   73  54  51 N6        30.10F
HENDERSON      CLOUDY    73  48  40 W7        30.08S
OWENSBORO      MOSUNNY  N/A N/A N/A NW9       30.08F
HOPKINSVILLE   CLOUDY    68  56  65 N9        30.09F
BOWLING GREEN  CLOUDY    68  58  70 VRB5      30.09S
GLASGOW        CLOUDY    63  63 100 NW3       30.08F
$$

KYZ024-025-028>034-038-045-046-053-262100-
NORTH CENTRAL KENTUCKY

CITY           SKY/WX    TMP DP  RH WIND       PRES   REMARKS
LOUISVILLE/SDF PTSUNNY   69  54  58 W8        30.05F
LOUISVILLE/LOU CLOUDY    68  52  56 NW7       30.06F
FORT KNOX      CLOUDY    66  55  67 VRB5      30.06F
$$

KYZ035>037-039>044-047>052-055>060-089>105-262100-
NORTHEAST KENTUCKY

CITY           SKY/WX    TMP DP  RH WIND       PRES   REMARKS
LEXINGTON      PTSUNNY   65  57  75 NW9       30.06F
COVINGTON      PTSUNNY   67  53  61 W9        30.03F
FRANKFORT      CLOUDY    66  56  70 W5        30.05F
$$

KYZ054-064>069-076>088-106>120-262100-
SOUTHEAST KENTUCKY

CITY           SKY/WX    TMP DP  RH WIND       PRES   REMARKS
JACKSON        MOSUNNY   77  64  64 VRB3      30.03F
LONDON         CLOUDY    74  64  71 NW6       30.05S
SOMERSET       PTSUNNY   70  59  68 N7        30.06F
MIDDLESBORO    CLOUDY    78  68  72 W9G16     30.03R
MONTICELLO     CLOUDY    71  65  81 N14       30.07F
$$





USA.gov is the U.S. government's official web portal to all federal, state and local government web resources and services.